Time,TemperatureF,DewpointF,PressureIn,WindDirection,WindDirectionDegrees,WindSpeedMPH,WindSpeedGustMPH,Humidity,HourlyPrecipIn,Conditions,Clouds,dailyrainin,SoftwareType,DateUTC
2013-05-30 00:01:00,77.1,71.0,30.05,East,98,9.0,21.0,82,0.00,,,2.04,weatherlink.com 1.10,2013-05-30 04:01:00,
2013-05-30 00:16:00,77.3,71.0,30.05,SE,130,14.0,19.0,80,0.00,,,0.00,weatherlink.com 1.10,2013-05-30 04:16:00,
2013-05-30 00:31:00,77.6,71.0,30.05,ESE,107,12.0,18.0,79,0.00,,,0.00,weatherlink.com 1.10,2013-05-30 04:31:00,
2013-05-30 00:46:00,78.0,71.0,30.05,ESE,123,6.0,24.0,78,0.00,,,0.00,weatherlink.com 1.10,2013-05-30 04:46:00,
2013-05-30 01:01:00,78.0,71.0,30.05,ENE,71,15.0,20.0,78,0.00,,,0.00,weatherlink.com 1.10,2013-05-30 05:01:00,
2013-05-30 01:16:00,78.0,70.0,30.05,ESE,110,8.0,19.0,77,0.01,,,0.01,weatherlink.com 1.10,2013-05-30 05:16:00,
2013-05-30 01:31:00,78.2,71.0,30.04,ESE,112,4.0,18.0,78,0.01,,,0.01,weatherlink.com 1.10,2013-05-30 05:31:00,
2013-05-30 01:46:00,78.4,71.0,30.04,East,101,3.0,23.0,77,0.01,,,0.01,weatherlink.com 1.10,2013-05-30 05:46:00,
2013-05-30 02:01:00,78.2,71.0,30.03,ESE,112,4.0,19.0,78,0.01,,,0.01,weatherlink.com 1.10,2013-05-30 06:01:00,
2013-05-30 02:16:00,78.2,69.0,30.03,East,85,1.0,21.0,73,0.00,,,0.01,weatherlink.com 1.10,2013-05-30 06:16:00,
2013-05-30 02:31:00,78.5,69.0,30.03,ESE,112,9.0,26.0,73,0.00,,,0.01,weatherlink.com 1.10,2013-05-30 06:31:00,
2013-05-30 02:46:00,78.4,70.0,30.02,SE,137,9.0,22.0,76,0.00,,,0.01,weatherlink.com 1.10,2013-05-30 06:46:00,
2013-05-30 03:01:00,77.8,69.0,30.02,SE,144,6.0,19.0,75,0.00,,,0.01,weatherlink.com 1.10,2013-05-30 07:01:00,
2013-05-30 03:16:00,78.0,70.0,30.01,East,93,12.0,23.0,75,0.00,,,0.01,weatherlink.com 1.10,2013-05-30 07:16:00,
2013-05-30 03:31:00,77.8,69.0,30.01,ESE,113,9.0,24.0,74,0.00,,,0.01,weatherlink.com 1.10,2013-05-30 07:31:00,
2013-05-30 03:46:00,78.0,69.0,30.02,ESE,109,14.0,27.0,74,0.00,,,0.01,weatherlink.com 1.10,2013-05-30 07:46:00,
2013-05-30 04:01:00,78.4,70.0,30.01,ESE,117,11.0,25.0,75,0.00,,,0.01,weatherlink.com 1.10,2013-05-30 08:01:00,
2013-05-30 04:16:00,78.4,70.0,30.01,East,94,1.0,23.0,76,0.00,,,0.01,weatherlink.com 1.10,2013-05-30 08:16:00,
2013-05-30 04:31:00,78.2,69.0,30.01,SE,133,13.0,27.0,74,0.00,,,0.01,weatherlink.com 1.10,2013-05-30 08:31:00,
2013-05-30 04:46:00,78.5,68.0,30.01,SE,139,5.0,25.0,69,0.00,,,0.01,weatherlink.com 1.10,2013-05-30 08:46:00,
2013-05-30 05:01:00,78.5,68.0,30.01,SE,133,6.0,19.0,69,0.00,,,0.01,weatherlink.com 1.10,2013-05-30 09:01:00,
2013-05-30 05:16:00,78.4,69.0,30.01,East,94,8.0,17.0,72,0.00,,,0.01,weatherlink.com 1.10,2013-05-30 09:16:00,
2013-05-30 05:31:00,78.4,70.0,30.01,East,79,13.0,22.0,74,0.00,,,0.01,weatherlink.com 1.10,2013-05-30 09:31:00,
2013-05-30 05:46:00,78.4,70.0,30.01,East,95,15.0,17.0,75,0.00,,,0.01,weatherlink.com 1.10,2013-05-30 09:46:00,
2013-05-30 06:01:00,78.4,71.0,30.01,East,86,9.0,21.0,77,0.00,,,0.01,weatherlink.com 1.10,2013-05-30 10:01:00,
2013-05-30 06:16:00,78.4,71.0,30.02,ESE,123,5.0,22.0,78,0.00,,,0.01,weatherlink.com 1.10,2013-05-30 10:16:00,
2013-05-30 06:31:00,78.4,72.0,30.02,ESE,109,16.0,22.0,80,0.00,,,0.01,weatherlink.com 1.10,2013-05-30 10:31:00,
2013-05-30 06:46:00,76.9,70.0,30.02,ESE,105,3.0,30.0,79,0.00,,,0.01,weatherlink.com 1.10,2013-05-30 10:46:00,
2013-05-30 07:01:00,77.3,72.0,30.03,ESE,102,7.0,22.0,83,0.00,,,0.01,weatherlink.com 1.10,2013-05-30 11:01:00,
2013-05-30 07:16:00,77.3,73.0,30.03,SE,127,1.0,19.0,85,0.00,,,0.01,weatherlink.com 1.10,2013-05-30 11:16:00,
2013-05-30 07:32:00,77.8,73.0,30.03,East,88,5.0,14.0,85,0.00,,,0.01,weatherlink.com 1.10,2013-05-30 11:32:00,
2013-05-30 07:46:00,77.3,73.0,30.04,SE,131,19.0,25.0,85,0.00,,,0.01,weatherlink.com 1.10,2013-05-30 11:46:00,
2013-05-30 08:01:00,77.8,72.0,30.04,ESE,114,11.0,27.0,82,0.00,,,0.01,weatherlink.com 1.10,2013-05-30 12:01:00,
2013-05-30 08:16:00,77.5,72.0,30.04,East,91,14.0,29.0,82,0.00,,,0.01,weatherlink.com 1.10,2013-05-30 12:16:00,
2013-05-30 08:31:00,77.8,72.0,30.05,SE,133,13.0,24.0,81,0.00,,,0.01,weatherlink.com 1.10,2013-05-30 12:31:00,
2013-05-30 08:46:00,78.2,72.0,30.05,East,93,16.0,22.0,81,0.00,,,0.01,weatherlink.com 1.10,2013-05-30 12:46:00,
2013-05-30 09:01:00,78.7,72.0,30.06,SSE,162,2.0,19.0,79,0.00,,,0.01,weatherlink.com 1.10,2013-05-30 13:01:00,
2013-05-30 09:16:00,78.7,72.0,30.06,East,80,2.0,22.0,81,0.00,,,0.01,weatherlink.com 1.10,2013-05-30 13:16:00,
2013-05-30 09:31:00,78.5,73.0,30.06,East,93,22.0,25.0,83,0.00,,,0.01,weatherlink.com 1.10,2013-05-30 13:31:00,
2013-05-30 09:46:00,79.1,74.0,30.06,ESE,114,4.0,24.0,83,0.00,,,0.01,weatherlink.com 1.10,2013-05-30 13:46:00,
2013-05-30 10:01:00,79.7,73.0,30.06,SE,127,0.0,21.0,81,0.00,,,0.01,weatherlink.com 1.10,2013-05-30 14:01:00,
2013-05-30 10:16:00,80.0,73.0,30.06,East,89,5.0,23.0,78,0.00,,,0.01,weatherlink.com 1.10,2013-05-30 14:16:00,
2013-05-30 10:31:00,80.2,72.0,30.06,SE,137,10.0,24.0,75,0.00,,,0.01,weatherlink.com 1.10,2013-05-30 14:31:00,
2013-05-30 10:47:00,79.7,72.0,30.06,East,87,8.0,30.0,76,0.00,,,0.01,weatherlink.com 1.10,2013-05-30 14:47:00,
2013-05-30 11:02:00,79.8,72.0,30.06,SE,129,18.0,26.0,77,0.00,,,0.01,weatherlink.com 1.10,2013-05-30 15:02:00,
2013-05-30 11:18:00,80.6,72.0,30.07,ESE,108,5.0,25.0,75,0.00,,,0.01,weatherlink.com 1.10,2013-05-30 15:18:00,
2013-05-30 11:32:00,81.1,73.0,30.07,SE,127,6.0,25.0,75,0.00,,,0.01,weatherlink.com 1.10,2013-05-30 15:32:00,
2013-05-30 11:47:00,79.3,73.0,30.07,ESE,110,3.0,27.0,81,0.03,,,0.04,weatherlink.com 1.10,2013-05-30 15:47:00,
2013-05-30 12:02:00,78.7,75.0,30.07,ESE,106,9.0,16.0,87,0.03,,,0.04,weatherlink.com 1.10,2013-05-30 16:02:00,
2013-05-30 12:17:00,79.7,74.0,30.05,SE,128,13.0,21.0,83,0.03,,,0.04,weatherlink.com 1.10,2013-05-30 16:17:00,
2013-05-30 12:32:00,80.0,73.0,30.05,ENE,73,14.0,21.0,79,0.03,,,0.04,weatherlink.com 1.10,2013-05-30 16:32:00,
2013-05-30 12:47:00,80.8,73.0,30.05,East,98,18.0,23.0,77,0.00,,,0.04,weatherlink.com 1.10,2013-05-30 16:47:00,
2013-05-30 13:02:00,79.1,72.0,30.05,SE,129,11.0,25.0,80,0.01,,,0.05,weatherlink.com 1.10,2013-05-30 17:02:00,
2013-05-30 13:17:00,79.7,73.0,30.04,ENE,78,17.0,25.0,80,0.01,,,0.05,weatherlink.com 1.10,2013-05-30 17:17:00,
2013-05-30 13:32:00,80.0,72.0,30.04,East,91,15.0,26.0,77,0.01,,,0.05,weatherlink.com 1.10,2013-05-30 17:32:00,
2013-05-30 13:47:00,80.0,73.0,30.05,East,96,5.0,23.0,79,0.01,,,0.05,weatherlink.com 1.10,2013-05-30 17:47:00,
2013-05-30 14:02:00,80.0,73.0,30.04,East,94,7.0,23.0,80,0.00,,,0.05,weatherlink.com 1.10,2013-05-30 18:02:00,
2013-05-30 14:17:00,80.2,73.0,30.04,ESE,105,15.0,24.0,79,0.00,,,0.05,weatherlink.com 1.10,2013-05-30 18:17:00,
2013-05-30 14:32:00,79.8,73.0,30.04,South,175,18.0,26.0,79,0.00,,,0.05,weatherlink.com 1.10,2013-05-30 18:32:00,
2013-05-30 14:47:00,81.0,73.0,30.03,ESE,122,12.0,26.0,76,0.00,,,0.05,weatherlink.com 1.10,2013-05-30 18:47:00,
2013-05-30 15:02:00,81.0,73.0,30.03,ENE,76,5.0,27.0,77,0.00,,,0.05,weatherlink.com 1.10,2013-05-30 19:02:00,
2013-05-30 15:17:00,80.6,72.0,30.03,NE,44,9.0,25.0,76,0.00,,,0.05,weatherlink.com 1.10,2013-05-30 19:17:00,
2013-05-30 15:32:00,79.8,73.0,30.02,East,98,12.0,31.0,79,0.00,,,0.05,weatherlink.com 1.10,2013-05-30 19:32:00,
2013-05-30 15:47:00,79.8,73.0,30.01,East,89,19.0,27.0,79,0.00,,,0.05,weatherlink.com 1.10,2013-05-30 19:47:00,
2013-05-30 16:02:00,79.8,73.0,30.01,ENE,65,17.0,26.0,79,0.00,,,0.05,weatherlink.com 1.10,2013-05-30 20:02:00,
2013-05-30 16:17:00,77.5,73.0,30.01,East,85,13.0,33.0,85,0.00,,,0.05,weatherlink.com 1.10,2013-05-30 20:17:00,
2013-05-30 16:32:00,77.8,73.0,30.01,ESE,104,7.0,30.0,85,0.01,,,0.06,weatherlink.com 1.10,2013-05-30 20:32:00,
2013-05-30 16:47:00,77.1,73.0,30.00,East,96,22.0,28.0,87,0.02,,,0.07,weatherlink.com 1.10,2013-05-30 20:47:00,
2013-05-30 17:02:00,77.6,72.0,30.00,East,86,15.0,32.0,83,0.02,,,0.07,weatherlink.com 1.10,2013-05-30 21:02:00,
2013-05-30 17:17:00,78.2,72.0,30.01,East,101,5.0,26.0,82,0.02,,,0.07,weatherlink.com 1.10,2013-05-30 21:17:00,
2013-05-30 17:32:00,78.0,70.0,30.00,East,100,8.0,26.0,77,0.00,,,0.07,weatherlink.com 1.10,2013-05-30 21:32:00,
2013-05-30 17:47:00,79.1,71.0,30.01,East,95,15.0,25.0,75,0.00,,,0.07,weatherlink.com 1.10,2013-05-30 21:47:00,
2013-05-30 18:03:00,79.1,72.0,30.01,East,92,21.0,24.0,79,0.00,,,0.07,weatherlink.com 1.10,2013-05-30 22:03:00,
2013-05-30 18:17:00,79.1,71.0,30.01,ESE,112,16.0,28.0,76,0.00,,,0.07,weatherlink.com 1.10,2013-05-30 22:17:00,
2013-05-30 18:32:00,79.3,71.0,30.01,East,84,18.0,25.0,76,0.00,,,0.07,weatherlink.com 1.10,2013-05-30 22:32:00,
2013-05-30 18:47:00,79.1,71.0,30.00,East,96,13.0,27.0,76,0.00,,,0.07,weatherlink.com 1.10,2013-05-30 22:47:00,
2013-05-30 19:02:00,78.7,69.0,30.01,East,85,16.0,32.0,73,0.00,,,0.07,weatherlink.com 1.10,2013-05-30 23:02:00,
2013-05-30 19:17:00,79.5,70.0,30.01,ESE,102,9.0,25.0,72,0.00,,,0.07,weatherlink.com 1.10,2013-05-30 23:17:00,
2013-05-30 19:32:00,79.1,69.0,30.02,SE,146,9.0,28.0,71,0.00,,,0.07,weatherlink.com 1.10,2013-05-30 23:32:00,
2013-05-30 19:47:00,79.1,69.0,30.02,East,82,25.0,25.0,72,0.00,,,0.07,weatherlink.com 1.10,2013-05-30 23:47:00,
2013-05-30 20:02:00,78.9,69.0,30.03,East,79,22.0,26.0,71,0.00,,,0.07,weatherlink.com 1.10,2013-05-31 00:02:00,
2013-05-30 20:17:00,78.7,69.0,30.04,SE,128,6.0,24.0,73,0.00,,,0.07,weatherlink.com 1.10,2013-05-31 00:17:00,
2013-05-30 20:32:00,78.7,69.0,30.03,ESE,117,4.0,25.0,72,0.00,,,0.07,weatherlink.com 1.10,2013-05-31 00:32:00,
2013-05-30 20:47:00,78.7,70.0,30.03,East,94,15.0,24.0,74,0.00,,,0.07,weatherlink.com 1.10,2013-05-31 00:47:00,
2013-05-30 21:02:00,78.7,70.0,30.04,ESE,103,12.0,22.0,75,0.00,,,0.07,weatherlink.com 1.10,2013-05-31 01:02:00,
2013-05-30 21:17:00,78.5,70.0,30.04,East,79,17.0,22.0,74,0.00,,,0.07,weatherlink.com 1.10,2013-05-31 01:17:00,
2013-05-30 21:32:00,78.5,70.0,30.05,ESE,104,13.0,22.0,75,0.00,,,0.07,weatherlink.com 1.10,2013-05-31 01:32:00,
2013-05-30 21:47:00,78.7,71.0,30.05,East,94,12.0,21.0,76,0.00,,,0.07,weatherlink.com 1.10,2013-05-31 01:47:00,
2013-05-30 22:02:00,78.5,72.0,30.05,ESE,108,7.0,22.0,79,0.00,,,0.07,weatherlink.com 1.10,2013-05-31 02:02:00,
2013-05-30 22:17:00,78.2,72.0,30.05,East,85,3.0,27.0,81,0.00,,,0.07,weatherlink.com 1.10,2013-05-31 02:17:00,
2013-05-30 22:32:00,77.8,73.0,30.05,ESE,103,15.0,24.0,84,0.00,,,0.07,weatherlink.com 1.10,2013-05-31 02:32:00,
2013-05-30 22:47:00,78.4,73.0,30.05,ENE,78,7.0,21.0,82,0.00,,,0.07,weatherlink.com 1.10,2013-05-31 02:47:00,
2013-05-30 23:02:00,78.0,72.0,30.05,SE,142,8.0,24.0,81,0.00,,,0.07,weatherlink.com 1.10,2013-05-31 03:02:00,
2013-05-30 23:17:00,77.5,72.0,30.05,SE,129,0.0,18.0,82,0.00,,,0.07,weatherlink.com 1.10,2013-05-31 03:17:00,
2013-05-30 23:32:00,77.3,71.0,30.06,East,83,6.0,15.0,82,0.00,,,0.07,weatherlink.com 1.10,2013-05-31 03:32:00,
2013-05-30 23:47:00,77.6,72.0,30.06,East,85,5.0,19.0,83,0.00,,,0.07,weatherlink.com 1.10,2013-05-31 03:47:00,